Погода в Можи-Гуасу

Бразилия     22°21′02″S   46°57′18″W
темп.,
°C
ветер,
м/с
пор.,
м/с
влажн.,
%
обл.,
%
осадки,
мм/ч
давл.,
гПа
погр.,
м
27 февраля, сб
сб2700:00+18всв25940 0.0 1014141
03:00+17в11940 0.0 101323
06:00+17вюв11950 0.0 101423
09:00+22вюв237916 0.0 1016413
12:00+25в127827 4.4 1015622
15:00+24с128247 15.1 1012376
18:00+20вюв3794100 5.9 1012214
21:00+20вюв2594100 6.8 1014162
28 февраля, вс
вс2800:00+19юв2495100 0.3 1014125
03:00+19вюв2493100 0.4 1013114
06:00+18в239397 0.0 101490
09:00+23св247698 0.0 1015583
12:00+27ссв255859 0.9 10141327
15:00+25юв016773 1.5 1011411
18:00+23в11856 1.9 101128
21:00+20в239126 2.7 101357
1 марта, пн
пн100:00+19всв229288 0.0 101428
03:00+19в129187 0.1 101324
06:00+18всв229369 0.0 101450
09:00+23ссв247653 0.0 1014567
12:00+27с24658 0.7 10131285
15:00+27с446420 1.4 10111306
18:00+24всв118413 1.7 101123
21:00+20вюв128751 1.7 101323
2 марта, вт
вт200:00+19в119317 0.0 101423
03:00+19всв129233 0.0 101324
06:00+18св129394 0.0 101525
09:00+23св238097 0.0 1016409
12:00+28ссв2459100 0.0 10151260
15:00+28ссз336088 0.4 10121346
18:00+24с127999 0.9 101234
21:00+22всв118596 0.9 101523
3 марта, ср
ср300:00+20всв1189100 0.1 101623
03:00+19ссв1191100 0.2 101523
06:00+19св129270 0.0 101624
09:00+24ссв257383 0.0 1018510
12:00+27ссз466397 0.0 10161421
15:00+28ссз235881 0.1 10141406
18:00+25ссв127698 0.2 101325
21:00+21вюв118798 1.2 101623